Regional Weather Roundup
Issued by NWS Albany, NY

Current Version | Previous Version | Graphics & Text | Print | Product List | Glossary Off
Versions: 1 2 3 4 5 6 7 8 9 10 11 12 13 14 15 16 17 18 19 20 21 22 23 24 25 26 27

000
ASUS41 KALY 230810
RWRALY

NEW YORK STATE HOURLY WEATHER ROUNDUP
NATIONAL WEATHER SERVICE ALBANY NY
400 AM EDT TUE MAY 23 2017

NOTE: "FAIR" INDICATES FEW OR NO CLOUDS BELOW 12,000 FEET WITH NO
SIGNIFICANT WEATHER AND/OR NO OBSTRUCTIONS TO VISIBILITY.

NYZ032-033-038>043-046>054-057>066-NYZ062>081-082-084-230900-
EAST


CITY           SKY/WX    TMP DP  RH WIND       PRES   REMARKS
ALBANY         PTCLDY    49  46  90 CALM      29.97F
GLENS FALLS    NOT AVBL
POUGHKEEPSIE   CLOUDY    55  53  93 CALM      29.95R
NEWBURGH       MOCLDY    55  55 100 CALM      29.97S
MONTGOMERY     CLOUDY    55  53  93 NE3       29.94F
WHITE PLAINS   CLOUDY    58  55  90 N8        29.93R
ISLIP          CLOUDY    57  57 100 N9        29.93R
NEW YORK CITY  CLOUDY    60  56  86 N5        29.93R
CENTRAL PARK   CLOUDY    58  56  93 CALM      29.96R
$$

NYZ005>009-017-018-044>046-055-056-230900-
CENTRAL


CITY           SKY/WX    TMP DP  RH WIND       PRES   REMARKS
FULTON         CLEAR     43  41  93 CALM      29.95F
SYRACUSE       PTCLDY    45  43  93 SE3       29.95F
ROME           CLEAR     40  40 100 SE3       29.98F
ELMIRA         FOG       41  39  93 CALM      29.99F VSB 1/2
BINGHAMTON     PTCLDY    45  40  82 S5        29.99S
MONTICELLO     CLOUDY    48  45  87 NW6       29.98S
$$

NYZ026>034-041>043-087-230900-
NORTH


CITY           SKY/WX    TMP DP  RH WIND       PRES   REMARKS
WATERTOWN      CLEAR     47  44  90 S3        29.94S
FORT DRUM      NOT AVBL
OGDENSBURG     FAIR      49  46  88 SW6       29.93S
MASSENA        CLEAR     50  46  86 SW8       29.92S
SARANAC LAKE   CLEAR     43  43 100 SW7       29.92F
PLATTSBURGH    MOCLDY    46  44  93 CALM      29.91F
$$

NYZ001>004-010>016-019>021-085-230900-
WEST


CITY           SKY/WX    TMP DP  RH WIND       PRES   REMARKS
BUFFALO        CLOUDY    49  42  77 S5        29.94F
DUNKIRK        CLOUDY    55  44  66 S9        29.95F
JAMESTOWN      CLOUDY    45  39  81 S5        29.97F
WELLSVILLE     CLOUDY    48  40  73 W3        29.99F
ROCHESTER      CLOUDY    50  43  77 SW6       29.95F
PENN YAN       CLEAR     48  42  80 SW9       29.97F
$$

             KEY
       WCI = WIND CHILL INDEX
       VSB = VISIBILITY
       HX  = HEAT INDEX
$$




USA.gov is the U.S. government's official web portal to all federal, state and local government web resources and services.